Location: Ladrillo (historical)
(32.8195°N, 117.2231°W)
Time: 22:44:36
(UTC+00:00)

Altair - Pass Details

Date: 02 March 2021
Orbit: 1501 x 1683 km, 47.2° (Epoch: 15 April)

Event Time Altitude Azimuth Distance (km) Brightness Sun altitude
Rises 03:30:58 0° 255° (WSW) 4,629 11.2 -22.7°
Reaches altitude 10° 03:34:07 10° 261° (W) 3,656 10.5 -23.4°
Maximum altitude 03:42:59 50° 335° (NNW) 1,880 8.1 -25.2°
Enters shadow 03:49:37 20° 42° (NE) 3,036 8.7 -26.6°
